SCP
-0 -0 -0 -0 0 0 -0 0 0 0 0 0 0 -0 0 0 0 0 0 0 0 0 0 0 0 0 0 0 0 0 0 0 0 0 0 0 0 0 0 0 0 0 0 0
0 0 0 -0 -0 -0 0 0 -0 0 0 0 -0 0 0 0 0 0 0 0 0 0 0 0 0 0 0 0 0 0 0 0 0 0 0 0 0 0 0 0 0 0 0 0
0 0 0 -0 0 0 0 0 0 0 0 0 0 0 0 0 0 0 0 0 0 0 0 0 0 0 0 0 0 0 0 0 0 0 0 0 0 0 0 0 0 0 0 0
0 0 0 0 0 0 0 -0 -0 0 0 0 0 0 0 0 0 0 0 0 0 0 0 0 0 0 0 0 0 0 0 0 0 0 0 0 0 0 0 0 0 0 0 0
0 -0 -0 0 0 -0 -0 0 0 0 0 -0 -0 -0 -0 -0 0 0 0 0 0 0 0 0 0 0 0 0 0 0 0 0 0 0 0 0 0 0 0 0 0 0 0 0
0 0 0 0 0 -0 -0 0 0 -0 -0 -0 0 -0 -0 0 0 0 0 0 0 0 0 0 0 0 0 0 0 0 0 0 0 0 0 0 0 0 0 0 0 -0 0 0
0 0 0 0 -0 -0 0 0 -0 0 0 -0 0 0 -0 0 0 0 0 0 0 0 0 0 0 0 0 0 0 0 0 0 0 0 0 0 0 0 0 0 -0 -0 -0 -0
0 0 0 0 -0 -0 0 0 0 0 0 0 0 0 0 -0 -0 -0 0 0 0 0 0 0 0 0 0 0 0 0 0 0 0 0 0 0 0 0 0 0 -0 -0 -0 -0
0 0 0 0 0 0 0 0 0 0 0 -0 -0 -0 -0 -0 -0 -0 -0 -0 0 0 -0 -0 0 0 0 0 0 0 0 0 0 0 0 0 0 0 -0 -0 -0 -0 -0 -0
0 0 0 0 0 0 0 -0 -0 -0 0 -0 -0 -0 -0 -0 -0 -0 -0 -0 -0 0 -0 -0 0 0 0 0 0 0 0 0 0 0 0 0 0 0 0 -0 0 0 -0 -0
0 0 -0 0 0 0 -0 0 0 0 0 0 0 0 0 -0 0 -0 -0 -0 -0 -0 0 0 0 0 0 0 0 0 0 -0 0 0 0 0 0 0 -0 0 0 0 -0 0
0 0 0 0 0 0 0 -0 -0 0 0 0 0 0 0 0 0 0 -0 -0 -0 -0 -0 -0 0 0 -0 -0 -0 -0 -0 -0 0 0 0 0 0 0 -0 0 0 0 0 0
0 0 0 0 0 0 0 0 0 0 0 0 0 0 0 0 0 0 -0 0 0 -0 -0 -0 -0 -0 0 0 0 0 0 -0 -0 -0 -0 -0 -0 -0 -0 -0 -0 0 0 0
0 0 0 0 0 0 0 0 0 0 0 0 -0 0 -0 0 0 0 0 0 0 0 0 0 -0 -0 0 0 0 0 0 0 0 0 0 0 0 0 -0 -0 -0 0 0 0
0 0 0 0 0 0 0 0 0 0 0 -0 -0 -0 0 -0 -0 0 0 0 0 0 0 0 0 -0 -0 -0 0 0 0 0 0 0 0 0 0 0 0 0 0 0 0 0
-0 0 0 0 0 0 0 0 0 0 0 -0 -0 -0 -0 0 0 0 0 0 0 0 0 0 0 -0 -0 0 0 0 0 0 0 0 0 0 0 0 0 0 0 0 0 0
-0 -0 -0 0 0 -0 -0 0 0 0 0 -0 -0 -0 -0 -0 -0 -0 0 0 0 0 0 0 0 0 0 0 0 0 0 0 -0 0 0 0 0 0 0 0 0 0 0 0
-0 -0 -0 0 0 -0 0 0 0 0 -0 -0 -0 -0 0 -0 -0 -0 -0 0 0 0 0 0 0 0 0 0 0 0 0 0 0 0 0 0 0 0 0 0 0 0 0 0
-0 -0 -0 -0 0 -0 -0 0 0 -0 -0 -0 -0 -0 0 0 -0 0 0 0 0 0 0 0 0 0 0 0 0 0 0 0 0 0 0 0 0 0 0 0 0 0 0 0
-0 -0 -0 0 0 -0 0 0 0 -0 -0 -0 -0 0 -0 0 -0 -0 0 0 0 0 0 0 0 0 0 0 0 0 0 0 0 0 0 0 0 0 0 0 0 0 0 0
0 0 -0 -0 0 -0 -0 -0 0 0 0 -0 -0 -0 -0 -0 -0 -0 0 0 -0 -0 0 0 0 0 0 0 0 0 0 0 0 0 0 0 0 0 0 0 0 0 0 0
-0 -0 -0 0 0 0 -0 -0 0 0 0 -0 -0 -0 -0 -0 -0 0 0 0 0 -0 0 0 0 -0 0 0 0 0 0 0 0 0 0 0 0 0 0 0 0 0 0 0
-0 -0 -0 0 -0 -0 0 -0 0 0 -0 -0 -0 -0 -0 -0 0 -0 -0 -0 0 -0 0 0 -0 -0 -0 0 0 0 0 0 0 0 0 0 0 0 0 0 0 0 0 0
0 0 -0 -0 -0 -0 -0 -0 -0 -0 0 0 -0 -0 -0 -0 0 0 0 -0 -0 -0 -0 -0 -0 -0 -0 -0 -0 0 0 0 0 0 0 0 0 0 0 0 0 0 0 0
-0 -0 -0 0 0 0 -0 -0 -0 -0 0 0 0 -0 0 -0 0 0 -0 0 -0 -0 -0 -0 -0 -0 -0 -0 -0 0 0 0 0 0 0 0 0 0 0 0 0 0 0 0
0 0 -0 0 -0 0 0 0 -0 0 -0 0 -0 0 -0 -0 0 0 0 -0 -0 -0 -0 -0 -0 -0 -0 -0 0 0 0 0 0 0 0 0 0 0 0 0 0 0 0 0
0 0 0 0 0 0 -0 -0 -0 0 -0 -0 -0 -0 0 -0 -0 0 0 0 -0 -0 -0 0 -0 -0 -0 -0 -0 0 0 0 0 0 0 0 0 0 0 0 0 0 0 0
Wind_Speed_500mb
19 26 27 30 35 23 25 28 13 26 23 8 16 4 18 5 23 35 41 51 30 44 29 51 34 28 26 25 33 42 46 49 53 53 64 70 72 72 74 72 73 76 74 72
13 24 23 30 36 29 33 36 22 27 21 29 20 31 21 11 19 16 32 37 50 52 52 52 48 47 46 52 58 59 63 64 66 68 72 84 92 92 84 76 75 73 69 70
8 19 28 15 19 15 17 13 11 5 19 25 21 19 26 22 25 28 50 51 50 47 48 52 55 64 65 57 53 51 51 65 72 74 75 73 74 54 80 78 77 69 71 73
10 14 5 12 23 18 12 13 2 17 21 24 30 42 41 54 55 37 56 65 66 66 64 66 68 67 57 56 57 62 68 72 70 74 69 65 72 78 58 63 76 73 73 75
3 5 19 8 17 19 15 10 21 25 29 38 53 60 41 36 47 62 68 68 69 69 71 72 72 71 66 65 65 72 79 83 81 85 84 83 69 73 64 59 70 67 68 69
7 7 6 10 29 41 27 10 27 44 28 30 50 29 22 55 77 81 82 83 89 101 101 95 89 85 79 77 77 80 80 76 74 80 77 72 75 85 75 51 55 65 68 58
7 7 10 23 30 35 11 12 50 51 47 52 27 34 88 75 83 83 92 100 92 84 89 88 80 72 78 80 80 82 85 85 74 80 82 84 77 66 76 82 72 65 75 75
2 5 8 34 13 6 13 40 48 53 61 66 72 81 76 104 97 106 100 99 91 83 83 83 73 68 76 78 81 77 70 66 72 76 80 76 65 68 69 80 67 67 77 77
1 7 8 29 19 25 49 48 57 66 73 75 80 77 98 112 116 102 95 91 87 80 86 87 82 74 78 87 75 68 63 68 67 62 70 67 67 67 62 65 64 68 74 73
11 7 23 50 23 54 58 64 74 78 84 60 77 103 107 112 107 103 101 97 92 88 87 94 78 69 77 76 68 64 65 67 70 69 65 57 61 61 59 63 72 72 70 74
10 9 49 14 48 63 81 72 79 79 58 76 95 100 101 105 106 103 101 102 95 87 87 92 78 79 76 71 66 69 68 65 61 63 59 62 58 62 67 71 70 73 67 64
7 27 24 46 58 78 69 73 83 74 80 95 100 106 104 108 109 105 107 109 102 97 89 91 85 87 73 69 66 62 60 60 60 65 64 63 58 62 69 76 72 70 66 57
16 42 47 54 60 63 73 79 93 60 80 103 107 100 96 107 107 113 109 104 99 95 91 85 78 63 61 61 57 58 62 60 54 50 54 56 58 61 71 70 68 66 62 51
20 31 31 39 63 78 70 82 60 66 98 86 109 103 100 99 102 93 94 97 91 75 50 55 66 59 42 43 46 53 52 53 49 49 52 56 61 59 59 51 47 40 48 50
34 34 41 52 64 71 74 82 68 77 84 119 112 98 107 109 100 95 87 71 70 78 38 24 31 34 37 41 41 41 43 40 43 44 47 47 45 49 45 49 47 60 83 83
39 40 41 55 64 72 72 81 70 72 97 118 109 120 116 104 92 85 72 69 72 69 58 41 32 36 40 37 35 24 26 32 36 34 41 44 47 54 62 65 92 85 89 90
36 46 57 59 63 69 73 81 70 68 103 111 109 119 122 115 101 98 86 70 73 58 41 32 18 27 32 21 16 21 19 28 24 37 39 44 73 65 72 104 95 87 87 81
30 36 42 44 56 64 70 77 71 81 89 109 113 113 112 107 96 89 86 83 53 72 49 24 17 19 20 21 28 35 35 55 35 63 46 79 81 78 88 93 95 93 85 76
35 41 44 42 46 58 62 70 71 73 91 106 111 99 89 89 96 91 91 87 81 82 56 48 44 28 22 22 26 53 83 74 66 71 77 77 78 83 85 85 84 78 72 69
33 38 48 43 43 48 64 65 69 66 83 99 107 109 110 104 104 98 90 90 82 77 74 48 44 45 38 48 65 63 90 83 86 81 79 73 72 73 74 81 86 80 69 68
33 40 50 49 47 46 57 58 66 63 78 83 103 103 94 98 112 104 96 89 78 59 47 45 37 47 50 53 47 52 56 58 63 67 66 70 68 66 76 83 80 73 67 65
31 36 45 47 53 54 47 53 59 71 67 80 89 107 117 117 118 100 88 87 73 61 54 54 57 51 52 44 48 53 50 57 63 60 61 57 54 70 74 75 68 65 63 55
30 34 38 48 51 63 55 47 53 62 65 66 88 89 105 103 106 108 107 87 71 57 53 46 47 51 45 41 50 51 53 51 47 47 48 47 59 68 70 66 61 57 57 59
28 30 34 36 43 52 65 62 50 56 62 61 73 81 88 104 102 97 78 79 65 53 46 43 36 33 43 53 51 50 46 44 43 42 41 46 55 61 64 62 60 59 59 61
40 34 37 40 46 48 59 67 50 53 65 62 57 82 72 86 93 93 87 76 74 57 45 39 48 40 36 41 43 46 40 36 35 37 40 43 49 55 60 63 62 61 67 64
37 41 35 42 47 46 57 59 61 46 57 61 59 74 67 74 85 87 88 81 74 63 52 40 41 40 39 39 42 42 36 29 29 33 36 42 51 61 63 62 59 61 63 55
32 36 38 46 49 40 59 62 57 51 47 52 53 56 71 64 77 83 85 87 81 68 61 49 37 34 33 35 40 41 34 29 27 29 36 45 54 58 60 60 59 58 56 55
Wind_Direction_500mb
307 301 300 296 293 263 255 250 238 266 247 278 50 98 326 304 349 340 314 300 293 290 276 287 309 299 279 273 265 257 250 250 251 253 254 259 270 271 274 265 266 271 274 270
296 289 287 302 282 279 263 312 349 342 331 357 34 359 336 324 353 285 265 289 287 276 286 290 293 297 291 285 282 280 271 267 267 270 268 268 282 268 260 259 261 269 270 269
272 331 317 299 26 19 347 116 246 17 321 340 342 345 319 286 284 280 264 280 286 294 298 296 298 293 287 280 274 271 274 276 279 281 282 279 259 266 250 252 258 263 268 269
285 316 297 110 69 35 320 284 282 348 356 335 337 329 321 315 298 333 325 319 312 306 301 296 291 278 267 262 259 265 269 273 271 274 269 265 267 258 256 254 254 259 268 271
253 317 274 40 15 353 334 330 35 356 333 327 326 318 305 300 305 309 308 306 303 299 293 284 280 281 279 267 261 265 271 272 271 269 266 263 260 260 252 252 262 260 267 269
348 312 269 25 354 339 301 254 0 347 327 327 332 308 304 313 306 300 295 292 293 287 279 276 276 277 273 268 264 266 273 275 265 258 261 256 253 260 249 246 262 260 260 263
219 234 281 11 354 339 51 294 339 336 330 320 313 295 299 306 303 295 290 293 290 278 274 270 268 270 264 260 256 262 270 273 259 253 256 254 250 251 233 253 257 264 268 262
197 240 289 10 11 44 296 324 323 322 316 309 302 304 303 305 299 299 292 290 289 281 275 271 270 263 262 261 261 266 263 255 255 256 254 253 253 247 249 249 249 259 266 266
82 238 34 358 327 333 337 327 321 314 312 302 301 308 310 305 301 297 294 289 285 278 275 271 268 262 258 259 262 260 250 250 255 251 241 249 249 243 248 242 247 255 263 258
358 324 1 328 328 332 331 322 319 313 309 319 318 308 306 307 303 299 296 291 287 279 273 271 266 259 254 256 254 251 249 245 248 250 250 246 242 241 242 236 247 253 255 256
261 297 342 293 325 321 325 326 317 316 308 319 315 306 306 307 302 297 294 292 287 279 272 268 263 260 259 252 245 248 247 245 242 244 244 249 243 237 233 237 242 251 254 253
258 317 294 290 305 319 316 318 319 317 323 327 320 312 308 306 305 301 299 296 288 281 271 268 260 261 252 244 241 240 241 244 241 242 244 238 236 233 234 241 250 252 252 252
294 305 302 301 304 313 317 321 321 324 333 323 319 318 315 313 310 310 310 308 298 288 280 271 261 254 243 235 231 231 234 236 242 236 229 229 230 233 237 243 245 240 238 233
325 328 318 321 313 320 320 328 330 333 333 327 327 324 321 319 321 325 320 322 327 324 298 258 240 244 234 221 220 223 230 232 235 233 229 229 223 227 234 238 245 195 178 194
328 327 308 311 319 326 330 337 340 340 339 336 335 332 334 339 337 336 345 8 15 30 61 111 179 197 195 198 206 208 214 228 232 226 230 225 219 215 219 206 205 184 166 164
330 330 336 333 328 331 336 342 344 348 346 340 339 341 347 346 346 354 17 35 30 38 45 76 110 142 159 174 176 201 234 232 230 224 218 206 193 183 175 183 154 146 148 151
335 341 341 333 330 333 341 340 345 351 348 346 344 347 356 358 5 21 28 32 39 43 50 69 111 118 130 150 183 212 185 154 160 174 159 158 165 152 158 149 149 149 145 146
347 339 331 333 331 336 339 343 346 350 353 352 352 355 357 360 358 7 25 33 42 40 64 80 119 137 139 159 140 131 157 157 161 153 151 125 130 140 148 147 145 144 144 147
347 340 345 342 341 342 340 346 352 352 354 356 356 355 355 3 11 19 33 39 32 37 54 51 83 93 88 131 117 113 115 130 126 132 133 133 142 145 142 139 140 137 137 142
344 346 351 348 352 350 348 351 354 356 358 354 1 359 5 9 15 21 35 37 30 27 44 88 86 94 110 123 110 120 125 124 129 130 136 137 136 137 140 140 137 139 142 145
347 350 355 354 351 354 354 356 1 358 2 359 5 3 3 10 23 28 28 28 31 49 59 57 104 94 107 95 110 120 127 127 126 133 134 136 136 137 141 144 144 144 143 147
348 351 356 4 4 359 4 6 11 5 1 4 4 7 13 16 20 23 24 20 22 42 59 70 77 103 110 125 130 132 141 134 136 136 136 137 141 144 146 147 146 148 149 147
349 349 349 2 7 9 13 15 16 4 7 5 8 10 13 15 18 17 17 19 20 37 51 67 82 95 100 124 140 138 141 141 139 141 144 150 145 146 146 148 151 152 152 152
352 356 359 355 355 6 12 14 18 16 15 9 5 12 10 12 17 21 22 24 24 32 51 78 88 92 108 123 129 134 137 146 152 154 155 149 146 149 153 154 154 154 155 158
29 31 22 9 3 5 6 4 10 19 15 20 15 11 12 13 16 17 20 25 27 28 49 63 91 100 107 124 129 135 141 145 152 155 154 156 157 160 160 159 159 158 161 160
23 30 27 12 18 14 2 5 11 16 16 20 23 9 13 13 14 18 22 28 30 28 37 52 73 91 109 129 137 145 152 153 157 156 158 159 158 155 154 157 158 162 163 166
30 27 22 18 24 13 6 9 12 13 19 20 21 11 16 11 15 16 20 26 29 28 30 37 55 82 102 125 141 150 158 158 155 156 163 161 160 160 159 159 161 165 169 167
Wind_Speed_850mb
19 26 27 30 35 23 25 28 13 26 23 8 16 4 18 5 23 35 41 51 30 44 29 51 34 28 26 25 33 42 46 49 53 53 64 70 72 72 74 72 73 76 74 72
13 24 23 30 36 29 33 36 22 27 21 29 20 31 21 11 19 16 32 37 50 52 52 52 48 47 46 52 58 59 63 64 66 68 72 84 92 92 84 76 75 73 69 70
8 19 28 15 19 15 17 13 11 5 19 25 21 19 26 22 25 28 50 51 50 47 48 52 55 64 65 57 53 51 51 65 72 74 75 73 74 54 80 78 77 69 71 73
10 14 5 12 23 18 12 13 2 17 21 24 30 42 41 54 55 37 56 65 66 66 64 66 68 67 57 56 57 62 68 72 70 74 69 65 72 78 58 63 76 73 73 75
3 5 19 8 17 19 15 10 21 25 29 38 53 60 41 36 47 62 68 68 69 69 71 72 72 71 66 65 65 72 79 83 81 85 84 83 69 73 64 59 70 67 68 69
7 7 6 10 29 41 27 10 27 44 28 30 50 29 22 55 77 81 82 83 89 101 101 95 89 85 79 77 77 80 80 76 74 80 77 72 75 85 75 51 55 65 68 58
7 7 10 23 30 35 11 12 50 51 47 52 27 34 88 75 83 83 92 100 92 84 89 88 80 72 78 80 80 82 85 85 74 80 82 84 77 66 76 82 72 65 75 75
2 5 8 34 13 6 13 40 48 53 61 66 72 81 76 104 97 106 100 99 91 83 83 83 73 68 76 78 81 77 70 66 72 76 80 76 65 68 69 80 67 67 77 77
1 7 8 29 19 25 49 48 57 66 73 75 80 77 98 112 116 102 95 91 87 80 86 87 82 74 78 87 75 68 63 68 67 62 70 67 67 67 62 65 64 68 74 73
11 7 23 50 23 54 58 64 74 78 84 60 77 103 107 112 107 103 101 97 92 88 87 94 78 69 77 76 68 64 65 67 70 69 65 57 61 61 59 63 72 72 70 74
10 9 49 14 48 63 81 72 79 79 58 76 95 100 101 105 106 103 101 102 95 87 87 92 78 79 76 71 66 69 68 65 61 63 59 62 58 62 67 71 70 73 67 64
7 27 24 46 58 78 69 73 83 74 80 95 100 106 104 108 109 105 107 109 102 97 89 91 85 87 73 69 66 62 60 60 60 65 64 63 58 62 69 76 72 70 66 57
16 42 47 54 60 63 73 79 93 60 80 103 107 100 96 107 107 113 109 104 99 95 91 85 78 63 61 61 57 58 62 60 54 50 54 56 58 61 71 70 68 66 62 51
20 31 31 39 63 78 70 82 60 66 98 86 109 103 100 99 102 93 94 97 91 75 50 55 66 59 42 43 46 53 52 53 49 49 52 56 61 59 59 51 47 40 48 50
34 34 41 52 64 71 74 82 68 77 84 119 112 98 107 109 100 95 87 71 70 78 38 24 31 34 37 41 41 41 43 40 43 44 47 47 45 49 45 49 47 60 83 83
39 40 41 55 64 72 72 81 70 72 97 118 109 120 116 104 92 85 72 69 72 69 58 41 32 36 40 37 35 24 26 32 36 34 41 44 47 54 62 65 92 85 89 90
36 46 57 59 63 69 73 81 70 68 103 111 109 119 122 115 101 98 86 70 73 58 41 32 18 27 32 21 16 21 19 28 24 37 39 44 73 65 72 104 95 87 87 81
30 36 42 44 56 64 70 77 71 81 89 109 113 113 112 107 96 89 86 83 53 72 49 24 17 19 20 21 28 35 35 55 35 63 46 79 81 78 88 93 95 93 85 76
35 41 44 42 46 58 62 70 71 73 91 106 111 99 89 89 96 91 91 87 81 82 56 48 44 28 22 22 26 53 83 74 66 71 77 77 78 83 85 85 84 78 72 69
33 38 48 43 43 48 64 65 69 66 83 99 107 109 110 104 104 98 90 90 82 77 74 48 44 45 38 48 65 63 90 83 86 81 79 73 72 73 74 81 86 80 69 68
33 40 50 49 47 46 57 58 66 63 78 83 103 103 94 98 112 104 96 89 78 59 47 45 37 47 50 53 47 52 56 58 63 67 66 70 68 66 76 83 80 73 67 65
31 36 45 47 53 54 47 53 59 71 67 80 89 107 117 117 118 100 88 87 73 61 54 54 57 51 52 44 48 53 50 57 63 60 61 57 54 70 74 75 68 65 63 55
30 34 38 48 51 63 55 47 53 62 65 66 88 89 105 103 106 108 107 87 71 57 53 46 47 51 45 41 50 51 53 51 47 47 48 47 59 68 70 66 61 57 57 59
28 30 34 36 43 52 65 62 50 56 62 61 73 81 88 104 102 97 78 79 65 53 46 43 36 33 43 53 51 50 46 44 43 42 41 46 55 61 64 62 60 59 59 61
40 34 37 40 46 48 59 67 50 53 65 62 57 82 72 86 93 93 87 76 74 57 45 39 48 40 36 41 43 46 40 36 35 37 40 43 49 55 60 63 62 61 67 64
37 41 35 42 47 46 57 59 61 46 57 61 59 74 67 74 85 87 88 81 74 63 52 40 41 40 39 39 42 42 36 29 29 33 36 42 51 61 63 62 59 61 63 55
32 36 38 46 49 40 59 62 57 51 47 52 53 56 71 64 77 83 85 87 81 68 61 49 37 34 33 35 40 41 34 29 27 29 36 45 54 58 60 60 59 58 56 55
Wind_Direction_850mb
307 301 300 296 293 263 255 250 238 266 247 278 50 98 326 304 349 340 314 300 293 290 276 287 309 299 279 273 265 257 250 250 251 253 254 259 270 271 274 265 266 271 274 270
296 289 287 302 282 279 263 312 349 342 331 357 34 359 336 324 353 285 265 289 287 276 286 290 293 297 291 285 282 280 271 267 267 270 268 268 282 268 260 259 261 269 270 269
272 331 317 299 26 19 347 116 246 17 321 340 342 345 319 286 284 280 264 280 286 294 298 296 298 293 287 280 274 271 274 276 279 281 282 279 259 266 250 252 258 263 268 269
285 316 297 110 69 35 320 284 282 348 356 335 337 329 321 315 298 333 325 319 312 306 301 296 291 278 267 262 259 265 269 273 271 274 269 265 267 258 256 254 254 259 268 271
253 317 274 40 15 353 334 330 35 356 333 327 326 318 305 300 305 309 308 306 303 299 293 284 280 281 279 267 261 265 271 272 271 269 266 263 260 260 252 252 262 260 267 269
348 312 269 25 354 339 301 254 0 347 327 327 332 308 304 313 306 300 295 292 293 287 279 276 276 277 273 268 264 266 273 275 265 258 261 256 253 260 249 246 262 260 260 263
219 234 281 11 354 339 51 294 339 336 330 320 313 295 299 306 303 295 290 293 290 278 274 270 268 270 264 260 256 262 270 273 259 253 256 254 250 251 233 253 257 264 268 262
197 240 289 10 11 44 296 324 323 322 316 309 302 304 303 305 299 299 292 290 289 281 275 271 270 263 262 261 261 266 263 255 255 256 254 253 253 247 249 249 249 259 266 266
82 238 34 358 327 333 337 327 321 314 312 302 301 308 310 305 301 297 294 289 285 278 275 271 268 262 258 259 262 260 250 250 255 251 241 249 249 243 248 242 247 255 263 258
358 324 1 328 328 332 331 322 319 313 309 319 318 308 306 307 303 299 296 291 287 279 273 271 266 259 254 256 254 251 249 245 248 250 250 246 242 241 242 236 247 253 255 256
261 297 342 293 325 321 325 326 317 316 308 319 315 306 306 307 302 297 294 292 287 279 272 268 263 260 259 252 245 248 247 245 242 244 244 249 243 237 233 237 242 251 254 253
258 317 294 290 305 319 316 318 319 317 323 327 320 312 308 306 305 301 299 296 288 281 271 268 260 261 252 244 241 240 241 244 241 242 244 238 236 233 234 241 250 252 252 252
294 305 302 301 304 313 317 321 321 324 333 323 319 318 315 313 310 310 310 308 298 288 280 271 261 254 243 235 231 231 234 236 242 236 229 229 230 233 237 243 245 240 238 233
325 328 318 321 313 320 320 328 330 333 333 327 327 324 321 319 321 325 320 322 327 324 298 258 240 244 234 221 220 223 230 232 235 233 229 229 223 227 234 238 245 195 178 194
328 327 308 311 319 326 330 337 340 340 339 336 335 332 334 339 337 336 345 8 15 30 61 111 179 197 195 198 206 208 214 228 232 226 230 225 219 215 219 206 205 184 166 164
330 330 336 333 328 331 336 342 344 348 346 340 339 341 347 346 346 354 17 35 30 38 45 76 110 142 159 174 176 201 234 232 230 224 218 206 193 183 175 183 154 146 148 151
335 341 341 333 330 333 341 340 345 351 348 346 344 347 356 358 5 21 28 32 39 43 50 69 111 118 130 150 183 212 185 154 160 174 159 158 165 152 158 149 149 149 145 146
347 339 331 333 331 336 339 343 346 350 353 352 352 355 357 360 358 7 25 33 42 40 64 80 119 137 139 159 140 131 157 157 161 153 151 125 130 140 148 147 145 144 144 147
347 340 345 342 341 342 340 346 352 352 354 356 356 355 355 3 11 19 33 39 32 37 54 51 83 93 88 131 117 113 115 130 126 132 133 133 142 145 142 139 140 137 137 142
344 346 351 348 352 350 348 351 354 356 358 354 1 359 5 9 15 21 35 37 30 27 44 88 86 94 110 123 110 120 125 124 129 130 136 137 136 137 140 140 137 139 142 145
347 350 355 354 351 354 354 356 1 358 2 359 5 3 3 10 23 28 28 28 31 49 59 57 104 94 107 95 110 120 127 127 126 133 134 136 136 137 141 144 144 144 143 147
348 351 356 4 4 359 4 6 11 5 1 4 4 7 13 16 20 23 24 20 22 42 59 70 77 103 110 125 130 132 141 134 136 136 136 137 141 144 146 147 146 148 149 147
349 349 349 2 7 9 13 15 16 4 7 5 8 10 13 15 18 17 17 19 20 37 51 67 82 95 100 124 140 138 141 141 139 141 144 150 145 146 146 148 151 152 152 152
352 356 359 355 355 6 12 14 18 16 15 9 5 12 10 12 17 21 22 24 24 32 51 78 88 92 108 123 129 134 137 146 152 154 155 149 146 149 153 154 154 154 155 158
29 31 22 9 3 5 6 4 10 19 15 20 15 11 12 13 16 17 20 25 27 28 49 63 91 100 107 124 129 135 141 145 152 155 154 156 157 160 160 159 159 158 161 160
23 30 27 12 18 14 2 5 11 16 16 20 23 9 13 13 14 18 22 28 30 28 37 52 73 91 109 129 137 145 152 153 157 156 158 159 158 155 154 157 158 162 163 166
30 27 22 18 24 13 6 9 12 13 19 20 21 11 16 11 15 16 20 26 29 28 30 37 55 82 102 125 141 150 158 158 155 156 163 161 160 160 159 159 161 165 169 167